Location: Festilli
(46.4000°N, 11.6667°E)
Time: 21:42:21
(UTC+00:00)

Cosmos 2360 Rocket - Pass Details

Date: 03 March 2021
Orbit: 833 x 846 km, 71.0° (Epoch: 21 April)

Event Time Altitude Azimuth Distance (km) Brightness Sun altitude
Rises 18:36:45 0° 206° (SSW) 3,375 5.6 -17.0°
Reaches altitude 10° 18:39:10 10° 207° (SSW) 2,447 4.8 -17.4°
Maximum altitude 18:44:48 85° 296° (WNW) 851 2.2 -18.4°
Drops below altitude 10° 18:50:30 10° 26° (NNE) 2,472 4.5 -19.4°
Sets 18:52:58 0° 27° (NNE) 3,412 5.2 -19.8°
